EW7349 Weather Reports


time (UTC)temp
C
wind
direction
speed
KPH
gust
KPH
rain 1hr
cm
rain 24hr
cm
rain mn
cm
humidity
%
barometer
mb
20260510170040 28 229 3.2 9.7 0.00 0.00 0.00 38 1013.0
20260510165540 28 254 1.6 9.7 0.00 0.00 0.00 39 1013.0
20260510165259 28 228 1.6 6.4 0.00 0.00 0.00 37 1013.0
20260510164810 28 332 1.6 4.8 0.00 0.00 0.00 40 1013.2
20260510164039 28 113 3.2 9.7 0.00 0.00 0.00 41 1013.2
20260510163540 27 32 3.2 9.7 0.00 0.00 0.00 41 1013.2
20260510163040 27 268 3.2 12.9 0.00 0.00 0.00 41 1013.2
20260510162540 26 109 1.6 12.9 0.00 0.00 0.00 41 1013.4
20260510162041 26 259 1.6 8.0 0.00 0.00 0.00 40 1013.4
20260510161540 26 258 1.6 8.0 0.00 0.00 0.00 41 1013.5
20260510161314 26 82 1.6 8.0 0.00 0.00 0.00 42 1013.5
20260510160541 26 71 1.6 9.7 0.00 0.00 0.00 41 1013.6
20260510160302 26 289 1.6 9.7 0.00 0.00 0.00 41 1013.6
20260510155540 25 32 3.2 9.7 0.00 0.00 0.00 44 1013.7
20260510155258 25 196 3.2 8.0 0.00 0.00 0.00 43 1013.7
20260510154806 25 217 1.6 6.4 0.00 0.00 0.00 42 1013.7
20260510154040 25 167 1.6 4.8 0.00 0.00 0.00 45 1013.7
20260510153804 25 342 1.6 6.4 0.00 0.00 0.00 47 1013.7
20260510153040 25 56 1.6 8.0 0.00 0.00 0.00 46 1013.8
20260510152757 25 237 1.6 8.0 0.00 0.00 0.00 48 1013.8
20260510152035 25 113 1.6 4.8 0.00 0.00 0.00 47 1013.7
20260510151531 24 143 1.6 8.0 0.00 0.00 0.00 47 1013.7
20260510151031 24 246 3.2 9.7 0.00 0.00 0.00 47 1013.8
20260510151019 23 229 3.2 9.7 0.00 0.00 0.00 49 1013.7
20260510150251 23 254 1.6 4.8 0.00 0.00 0.00 47 1013.7
20260510145527 23 246 1.6 4.8 0.00 0.00 0.00 48 1013.6
20260510145025 23 132 1.6 6.4 0.00 0.00 0.00 49 1013.6
20260510144525 23 226 1.6 6.4 0.00 0.00 0.00 52 1013.6
20260510144027 23 90 1.6 9.7 0.00 0.00 0.00 51 1013.5
20260510143523 22 68 1.6 9.7 0.00 0.00 0.00 49 1013.6
20260510143024 22 297 1.6 6.4 0.00 0.00 0.00 51 1013.5
20260510142526 22 248 0.0 6.4 0.00 0.00 0.00 54 1013.4
20260510142023 22 73 1.6 3.2 0.00 0.00 0.00 53 1013.2
20260510141741 21 245 1.6 3.2 0.00 0.00 0.00 54 1013.2
20260510141021 21 222 1.6 3.2 0.00 0.00 0.00 60 1013.2
20260510140519 20 99 1.6 4.8 0.00 0.00 0.00 58 1013.1
20260510140019 20 153 1.6 4.8 0.00 0.00 0.00 58 1013.2
20260510135516 20 290 1.6 4.8 0.00 0.00 0.00 62 1013.0
20260510135225 18 239 1.6 4.8 0.00 0.00 0.00 64 1013.1
20260510135109 19 209 1.6 4.8 0.00 0.00 0.00 62 1013.1
20260510134009 18 309 1.6 4.8 0.00 0.00 0.00 68 1013.1
20260510133503 17 229 1.6 4.8 0.00 0.00 0.00 69 1013.1
20260510133446 17 245 1.6 4.8 0.00 0.00 0.00 71 1013.1
20260510132449 17 132 1.6 4.8 0.00 0.00 0.00 73 1013.1
20260510132431 16 281 0.0 3.2 0.00 0.00 0.00 75 1013.1
20260510131439 16 5 0.0 3.2 0.00 0.00 0.00 77 1013.0
20260510130934 16 223 0.0 3.2 0.00 0.00 0.00 80 1013.0
20260510130426 15 215 0.0 3.2 0.00 0.00 0.00 81 1013.0
20260510125921 15 213 0.0 3.2 0.00 0.00 0.00 82 1013.1
20260510125414 15 212 0.0 3.2 0.00 0.00 0.00 83 1013.2
20260510124909 14 248 0.0 1.6 0.00 0.00 0.00 84 1013.2
20260510124402 14 248 0.0 1.6 0.00 0.00 0.00 86 1013.4
20260510123856 13 309 0.0 1.6 0.00 0.00 0.00 88 1013.5
20260510123350 13 312 0.0 4.8 0.00 0.00 0.00 88 1013.5
20260510122845 13 312 1.6 4.8 0.00 0.00 0.00 89 1013.5
20260510122338 13 241 1.6 4.8 0.00 0.00 0.00 90 1013.4
20260510121832 12 242 0.0 3.2 0.00 0.00 0.00 91 1013.2
20260510121326 12 205 0.0 1.6 0.00 0.00 0.00 91 1013.2
20260510120821 12 269 0.0 1.6 0.00 0.00 0.00 91 1013.1
20260510120314 12 227 0.0 3.2 0.00 0.00 0.00 91 1013.1
20260510115808 12 265 0.0 3.2 0.00 0.00 0.00 91 1013.1
20260510115305 12 198 0.0 3.2 0.00 0.00 0.00 91 1013.0
20260510114755 11 200 0.0 3.2 0.00 0.00 0.00 91 1012.9
20260510114731 11 215 0.0 6.4 0.00 0.00 0.00 91 1012.8
20260510113744 11 215 0.0 6.4 0.00 0.00 0.00 91 1012.8
20260510113240 11 211 0.0 1.6 0.00 0.00 0.00 90 1012.7
20260510112733 11 211 0.0 1.6 0.00 0.00 0.00 90 1012.7
20260510112226 11 211 0.0 0.0 0.00 0.00 0.00 90 1012.6
20260510111721 11 211 0.0 0.0 0.00 0.00 0.00 90 1012.4
20260510111431 11 211 0.0 0.0 0.00 0.00 0.00 90 1012.3
20260510110704 11 211 0.0 1.6 0.00 0.00 0.00 89 1012.2
20260510110158 11 211 0.0 1.6 0.00 0.00 0.00 89 1012.2
20260510105653 11 211 0.0 1.6 0.00 0.00 0.00 89 1012.1
20260510105629 11 211 0.0 1.6 0.00 0.00 0.00 89 1012.0
20260510104640 11 211 0.0 0.0 0.00 0.00 0.00 89 1012.0
20260510104400 11 211 0.0 0.0 0.00 0.00 0.00 89 1011.9
20260510103850 11 211 0.0 0.0 0.00 0.00 0.00 88 1011.8
20260510103122 11 211 0.0 0.0 0.00 0.00 0.00 88 1011.8
20260510102617 11 211 0.0 0.0 0.00 0.00 0.00 88 1011.7
20260510102110 11 211 0.0 0.0 0.00 0.00 0.00 88 1011.6
20260510101604 11 211 0.0 0.0 0.00 0.00 0.00 88 1011.6
20260510101058 11 211 0.0 0.0 0.00 0.00 0.00 88 1011.6
20260510100552 11 211 0.0 0.0 0.00 0.00 0.00 88 1011.6
20260510100046 11 211 0.0 0.0 0.00 0.00 0.00 88 1011.6
20260510095541 11 211 0.0 0.0 0.00 0.00 0.00 88 1011.6
20260510095034 11 211 0.0 0.0 0.00 0.00 0.00 88 1011.6
20260510094528 11 211 0.0 1.6 0.00 0.00 0.00 89 1011.6
20260510094023 11 211 0.0 1.6 0.00 0.00 0.00 89 1011.5
20260510093516 11 211 0.0 1.6 0.00 0.00 0.00 88 1011.4
20260510093011 11 211 0.0 0.0 0.00 0.00 0.00 88 1011.4
20260510092504 11 211 0.0 0.0 0.00 0.00 0.00 88 1011.3
20260510091958 12 211 0.0 0.0 0.00 0.00 0.00 88 1011.3
20260510091452 12 211 0.0 0.0 0.00 0.00 0.00 88 1011.3
20260510090946 12 211 0.0 0.0 0.00 0.00 0.00 88 1011.3
20260510090440 12 211 0.0 0.0 0.00 0.00 0.00 88 1011.2
20260510085934 12 211 0.0 0.0 0.00 0.00 0.00 88 1011.1
20260510085428 12 211 0.0 0.0 0.00 0.00 0.00 88 1011.1
20260510084922 12 211 0.0 0.0 0.00 0.00 0.00 88 1011.1
20260510084728 12 211 0.0 0.0 0.00 0.00 0.00 88 1011.1
20260510084637 12 211 0.0 0.0 0.00 0.00 0.00 88 1011.1
20260510083405 12 211 0.0 0.0 0.00 0.00 0.00 88 1011.1
20260510082904 12 211 0.0 0.0 0.00 0.00 0.00 87 1011.0
20260510082622 12 211 0.0 0.0 0.00 0.00 0.00 87 1010.9
20260510082122 12 211 0.0 0.0 0.00 0.00 0.00 87 1011.0
20260510081403 12 211 0.0 1.6 0.00 0.00 0.00 87 1011.0
20260510081124 12 211 0.0 1.6 0.00 0.00 0.00 86 1011.0
20260510080626 12 209 0.0 1.6 0.00 0.00 0.00 86 1010.9
20260510080119 12 209 0.0 0.0 0.00 0.00 0.00 86 1010.8
20260510075356 12 209 0.0 0.0 0.00 0.00 0.00 86 1010.8
20260510074859 12 209 0.0 0.0 0.00 0.00 0.00 86 1010.8
20260510074358 12 209 0.0 0.0 0.00 0.00 0.00 86 1010.6
20260510073856 12 209 0.0 0.0 0.00 0.00 0.00 85 1010.6
20260510073620 12 209 0.0 0.0 0.00 0.00 0.00 85 1010.5
20260510072853 12 209 0.0 0.0 0.00 0.00 0.00 85 1010.5
20260510072355 13 209 0.0 0.0 0.00 0.00 0.00 84 1010.6
20260510071851 13 209 0.0 0.0 0.00 0.00 0.00 84 1010.5
20260510071349 13 209 0.0 0.0 0.00 0.00 0.00 84 1010.5
20260510071117 13 209 0.0 0.0 0.00 0.00 0.00 84 1010.4
20260510070350 13 209 0.0 0.0 0.00 0.00 0.00 84 1010.3
20260510065849 13 209 0.0 0.0 0.00 0.00 0.00 84 1010.3
20260510065348 13 209 0.0 0.0 0.00 0.00 0.00 84 1010.3
20260510065104 13 209 0.0 0.0 0.00 0.00 0.00 83 1010.2
20260510064349 13 209 0.0 0.0 0.00 0.00 0.00 83 1010.2
20260510063851 13 209 0.0 0.0 0.00 0.00 0.00 83 1010.1
20260510063344 13 209 0.0 0.0 0.00 0.00 0.00 83 1010.1
20260510062845 13 209 0.0 0.0 0.00 0.00 0.00 83 1010.0
20260510062346 13 209 0.0 0.0 0.00 0.00 0.00 83 1010.0
20260510061846 13 209 0.0 0.0 0.00 0.00 0.00 83 1010.0
20260510061346 13 209 0.0 0.0 0.00 0.00 0.00 82 1010.1
20260510060844 13 209 0.0 0.0 0.00 0.00 0.00 82 1010.0
20260510060346 14 209 0.0 0.0 0.00 0.00 0.00 82 1010.1
20260510055845 14 209 0.0 0.0 0.00 0.00 0.00 82 1010.1
20260510055834 14 209 0.0 0.0 0.00 0.00 0.00 82 1010.2
20260510054844 14 209 0.0 1.6 0.00 0.00 0.00 82 1010.1
20260510054347 14 209 0.0 1.6 0.00 0.00 0.00 82 1010.2
20260510053845 14 209 0.0 0.0 0.00 0.00 0.00 82 1010.2
20260510053345 14 209 0.0 0.0 0.00 0.00 0.00 81 1010.1
20260510052846 14 209 0.0 1.6 0.00 0.00 0.00 81 1010.1
20260510052833 14 209 0.0 1.6 0.00 0.00 0.00 81 1010.2
20260510051843 14 146 0.0 0.0 0.00 0.00 0.00 81 1010.2
20260510051343 15 146 0.0 0.0 0.00 0.00 0.00 81 1010.1
20260510050843 15 146 0.0 0.0 0.00 0.00 0.00 81 1010.2
20260510050343 15 146 0.0 0.0 0.00 0.00 0.00 81 1010.1
20260510050325 15 147 0.0 0.0 0.00 0.00 0.00 81 1010.1
20260510045343 15 146 0.0 0.0 0.00 0.00 0.00 81 1010.1
20260510044844 15 146 0.0 0.0 0.00 0.00 0.00 81 1010.1
20260510044342 15 146 0.0 0.0 0.00 0.00 0.00 80 1010.1
20260510043839 15 146 0.0 0.0 0.00 0.00 0.00 81 1009.9
20260510043339 15 146 0.0 0.0 0.00 0.00 0.00 80 1010.0
20260510042840 15 146 0.0 0.0 0.00 0.00 0.00 80 1009.9
20260510042338 15 146 0.0 1.6 0.00 0.00 0.00 80 1009.8
20260510041835 15 146 0.0 4.8 0.00 0.00 0.00 80 1009.9
20260510041810 15 213 0.0 4.8 0.00 0.00 0.00 80 1009.9
20260510040831 15 185 0.0 3.2 0.00 0.00 0.00 80 1009.9
20260510040332 15 201 0.0 0.0 0.00 0.00 0.00 79 1010.0
20260510035829 15 201 0.0 0.0 0.00 0.00 0.00 79 1009.9
20260510035550 15 201 0.0 0.0 0.00 0.00 0.00 79 1009.9
20260510034830 15 201 0.0 0.0 0.00 0.00 0.00 79 1010.0
20260510034329 15 201 0.0 0.0 0.00 0.00 0.00 79 1010.0
20260510033830 16 201 0.0 0.0 0.00 0.00 0.00 79 1010.1
20260510033328 16 201 0.0 0.0 0.00 0.00 0.00 79 1009.9
20260510032830 16 201 0.0 0.0 0.00 0.00 0.00 78 1009.9
20260510032330 16 201 0.0 0.0 0.00 0.00 0.00 78 1009.9
20260510031829 16 201 0.0 0.0 0.00 0.00 0.00 78 1009.8
20260510031331 16 201 0.0 0.0 0.00 0.00 0.00 77 1009.8
20260510031101 16 201 0.0 0.0 0.00 0.00 0.00 77 1009.7
20260510030330 16 201 0.0 0.0 0.00 0.00 0.00 77 1009.7
20260510030053 16 201 0.0 0.0 0.00 0.00 0.00 76 1009.6
20260510025326 16 201 0.0 0.0 0.00 0.00 0.00 76 1009.6
20260510024830 16 201 0.0 0.0 0.00 0.00 0.00 76 1009.7
20260510024324 16 201 0.0 0.0 0.00 0.00 0.00 76 1009.6
20260510023824 16 201 0.0 0.0 0.00 0.00 0.00 76 1009.5
20260510023549 16 201 0.0 0.0 0.00 0.00 0.00 75 1009.4
20260510022820 16 201 0.0 0.0 0.00 0.00 0.00 75 1009.4
20260510022313 17 201 0.0 0.0 0.00 0.00 0.00 74 1009.5
20260510021807 17 201 0.0 0.0 0.00 0.00 0.00 74 1009.4
20260510021301 17 201 0.0 0.0 0.00 0.00 0.00 74 1009.4
20260510020755 17 201 0.0 0.0 0.00 0.00 0.00 73 1009.3
20260510020250 17 201 0.0 0.0 0.00 0.00 0.00 73 1009.3
20260510015744 17 201 0.0 0.0 0.00 0.00 0.00 73 1009.2
20260510015246 17 201 0.0 0.0 0.00 0.00 0.00 72 1009.1
20260510014747 17 201 0.0 0.0 0.00 0.00 0.00 73 1009.0
20260510014246 17 201 0.0 0.0 0.00 0.00 0.00 73 1009.0
20260510013745 17 201 0.0 0.0 0.00 0.00 0.00 72 1008.9
20260510013244 18 201 0.0 0.0 0.00 0.00 0.00 72 1008.8
20260510012744 18 201 0.0 0.0 0.00 0.00 0.00 71 1008.8
20260510012241 18 201 0.0 0.0 0.00 0.00 0.00 71 1008.6
20260510011741 18 201 0.0 0.0 0.00 0.00 0.00 71 1008.6
20260510011239 18 201 0.0 0.0 0.00 0.00 0.00 71 1008.5
20260510010739 18 201 0.0 0.0 0.00 0.00 0.00 70 1008.5
20260510010239 18 201 0.0 0.0 0.00 0.00 0.00 70 1008.4
20260510005737 18 201 0.0 0.0 0.00 0.00 0.00 69 1008.5
20260510005500 19 201 0.0 0.0 0.00 0.00 0.00 69 1008.4
20260510004736 19 201 0.0 1.6 0.00 0.00 0.00 69 1008.3
20260510004234 19 201 0.0 1.6 0.00 0.00 0.00 69 1008.2
20260510003734 20 201 0.0 0.0 0.00 0.00 0.00 68 1008.1
20260510003230 20 201 0.0 0.0 0.00 0.00 0.00 68 1008.1
20260510002728 20 201 0.0 0.0 0.00 0.00 0.00 67 1008.1
20260510002228 20 201 0.0 0.0 0.00 0.00 0.00 66 1008.0
20260510001722 20 201 0.0 0.0 0.00 0.00 0.00 66 1008.1
20260510001216 20 201 0.0 0.0 0.00 0.00 0.00 66 1008.0
20260510000710 21 201 0.0 0.0 0.00 0.00 0.00 65 1008.1
20260510000433 21 201 0.0 0.0 0.00 0.00 0.00 64 1008.0
20260509235658 21 201 0.0 0.0 0.00 0.00 0.00 64 1007.9
20260509235153 21 201 0.0 0.0 0.00 0.00 0.00 63 1007.8
20260509234646 21 201 0.0 0.0 0.00 0.00 0.00 61 1007.8
20260509234153 21 201 0.0 0.0 0.00 0.00 0.00 61 1007.8
20260509233635 22 201 0.0 0.0 0.00 0.00 0.00 61 1007.8
20260509233129 22 201 0.0 0.0 0.00 0.00 0.00 61 1007.7
20260509232623 22 201 0.0 0.0 0.00 0.00 0.00 60 1007.7
20260509232117 22 201 0.0 0.0 0.00 0.00 0.00 60 1007.7
20260509231610 22 201 0.0 1.6 0.00 0.00 0.00 59 1007.6
20260509231104 22 201 0.0 1.6 0.00 0.00 0.00 58 1007.7
20260509231036 22 222 0.0 0.0 0.00 0.00 0.00 58 1007.7
20260509230052 23 222 0.0 0.0 0.00 0.00 0.00 59 1007.7
20260509225547 23 222 0.0 1.6 0.00 0.00 0.00 57 1007.7
20260509225041 23 222 0.0 1.6 0.00 0.00 0.00 59 1007.7
20260509224535 23 222 0.0 0.0 0.00 0.00 0.00 58 1007.6
20260509224511 22 222 0.0 1.6 0.00 0.00 0.00 58 1007.6
20260509223522 22 222 0.0 1.6 0.00 0.00 0.00 58 1007.7
20260509223016 22 222 0.0 1.6 0.00 0.00 0.00 59 1007.8
20260509222511 22 222 0.0 1.6 0.00 0.00 0.00 58 1007.7
20260509222226 23 222 0.0 1.6 0.00 0.00 0.00 57 1007.8
20260509221458 23 222 0.0 1.6 0.00 0.00 0.00 57 1007.7
20260509220953 23 222 0.0 3.2 0.00 0.00 0.00 56 1007.8
20260509220446 22 222 0.0 3.2 0.00 0.00 0.00 55 1007.9
20260509215940 22 286 0.0 1.6 0.00 0.00 0.00 55 1007.8
20260509215434 22 286 0.0 1.6 0.00 0.00 0.00 54 1007.8
20260509214930 22 286 0.0 1.6 0.00 0.00 0.00 53 1007.8
20260509214741 22 221 0.0 1.6 0.00 0.00 0.00 54 1007.8
20260509214651 23 263 0.0 3.2 0.00 0.00 0.00 53 1007.8
20260509213410 23 143 1.6 6.4 0.00 0.00 0.00 53 1007.7
20260509212904 23 259 1.6 6.4 0.00 0.00 0.00 50 1007.7
20260509212358 23 266 1.6 9.7 0.00 0.00 0.00 52 1007.6
20260509211852 23 244 1.6 9.7 0.00 0.00 0.00 55 1007.6
20260509211346 23 179 1.6 6.4 0.00 0.00 0.00 52 1007.5
20260509210846 23 158 1.6 6.4 0.00 0.00 0.00 50 1007.6
20260509210347 24 177 1.6 6.4 0.00 0.00 0.00 51 1007.4
20260509205846 23 281 1.6 4.8 0.00 0.00 0.00 49 1007.5
20260509205343 23 201 3.2 6.4 0.00 0.00 0.00 48 1007.5
20260509204843 24 264 1.6 6.4 0.00 0.00 0.00 48 1007.5
20260509204343 24 128 1.6 9.7 0.00 0.00 0.00 51 1007.4
20260509203842 23 127 1.6 9.7 0.00 0.00 0.00 51 1007.3
20260509203342 24 156 1.6 9.7 0.00 0.00 0.00 52 1007.4
20260509202843 25 254 3.2 9.7 0.00 0.00 0.00 47 1007.4
20260509202340 25 88 3.2 9.7 0.00 0.00 0.00 48 1007.4
20260509201841 24 279 3.2 12.9 0.00 0.00 0.00 47 1007.4
20260509201603 25 27 3.2 12.9 0.00 0.00 0.00 45 1007.4
20260509201104 24 213 3.2 14.5 0.00 0.00 0.00 47 1007.5
20260509200341 25 197 3.2 14.5 0.00 0.00 0.00 48 1007.6
20260509195839 25 97 3.2 12.9 0.00 0.00 0.00 48 1007.7
20260509195337 25 35 3.2 11.3 0.00 0.00 0.00 45 1007.8
20260509194839 24 225 3.2 12.9 0.00 0.00 0.00 47 1007.8
20260509194334 25 324 1.6 12.9 0.00 0.00 0.00 51 1007.9
20260509193828 25 302 1.6 9.7 0.00 0.00 0.00 47 1008.0
20260509193555 23 264 3.2 8.0 0.00 0.00 0.00 52 1008.0
20260509193041 23 293 1.6 8.0 0.00 0.00 0.00 52 1008.2
20260509192318 23 243 1.6 9.7 0.00 0.00 0.00 52 1008.3
20260509191817 22 59 1.6 9.7 0.00 0.00 0.00 55 1008.3
20260509191318 22 244 1.6 9.7 0.00 0.00 0.00 56 1008.4
20260509190814 23 202 3.2 8.0 0.00 0.00 0.00 54 1008.4
20260509190315 23 126 1.6 8.0 0.00 0.00 0.00 51 1008.5
20260509185815 23 134 1.6 6.4 0.00 0.00 0.00 54 1008.5
20260509185313 22 128 1.6 4.8 0.00 0.00 0.00 57 1008.6
20260509184815 22 127 1.6 4.8 0.00 0.00 0.00 60 1008.7
20260509184315 21 157 1.6 6.4 0.00 0.00 0.00 59 1008.8
20260509183816 21 255 1.6 6.4 0.00 0.00 0.00 60 1008.9
20260509183314 22 15 1.6 6.4 0.00 0.00 0.00 57 1009.0
20260509182810 22 277 0.0 3.2 0.00 0.00 0.00 61 1009.0
20260509182309 22 189 1.6 3.2 0.00 0.00 0.00 60 1009.2
20260509181810 21 234 1.6 6.4 0.00 0.00 0.00 61 1009.4
20260509181310 21 134 1.6 6.4 0.00 0.00 0.00 60 1009.5
20260509180809 21 291 1.6 8.0 0.00 0.00 0.00 61 1009.5
20260509180532 21 16 1.6 8.0 0.00 0.00 0.00 62 1009.5
20260509175810 21 17 1.6 6.4 0.00 0.00 0.00 60 1009.5
20260509175309 20 204 3.2 11.3 0.00 0.00 0.00 62 1009.5
20260509174811 20 283 3.2 11.3 0.00 0.00 0.00 61 1009.7
20260509174305 20 207 1.6 8.0 0.00 0.00 0.00 61 1009.8
20260509173807 20 238 1.6 6.4 0.00 0.00 0.00 62 1009.8
20260509173307 20 202 1.6 11.3 0.00 0.00 0.00 62 1009.8
20260509172806 20 245 1.6 11.3 0.00 0.00 0.00 62 1009.9
20260509172308 20 217 1.6 9.7 0.00 0.00 0.00 63 1009.9
20260509172306 20 239 3.2 6.4 0.00 0.00 0.00 62 1010.0
20260509171308 20 197 3.2 6.4 0.00 0.00 0.00 62 1009.9
20260509170806 20 66 4.8 12.9 0.00 0.00 0.00 62 1009.9